Year,Month,Day,Hour,Minute,Value (Times are PST for temperature in C)
2009,03,28,00,00,4.60
2009,03,28,00,02,4.60
2009,03,28,00,03,4.60
2009,03,28,00,04,4.60
2009,03,28,00,05,4.60
2009,03,28,00,06,4.60
2009,03,28,00,07,4.60
2009,03,28,00,08,4.60
2009,03,28,00,09,4.60
2009,03,28,00,10,4.50
2009,03,28,00,11,4.50
2009,03,28,00,12,4.50
2009,03,28,00,13,4.50
2009,03,28,00,14,4.50
2009,03,28,00,15,4.50
2009,03,28,00,16,4.50
2009,03,28,00,17,4.50
2009,03,28,00,18,4.50
2009,03,28,00,20,4.50
2009,03,28,00,21,4.50
2009,03,28,00,22,4.50
2009,03,28,00,23,4.50
2009,03,28,00,24,4.50
2009,03,28,00,25,4.50
2009,03,28,00,26,4.50
2009,03,28,00,27,4.50
2009,03,28,00,28,4.50
2009,03,28,00,29,4.50
2009,03,28,00,30,4.50
2009,03,28,00,31,4.50
2009,03,28,00,32,4.50
2009,03,28,00,33,4.50
2009,03,28,00,35,4.50
2009,03,28,00,36,4.50
2009,03,28,00,38,4.50
2009,03,28,00,39,4.50
2009,03,28,00,40,4.50
2009,03,28,00,41,4.50
2009,03,28,00,42,4.50
2009,03,28,00,43,4.50
2009,03,28,00,44,4.50
2009,03,28,00,46,4.50
2009,03,28,00,47,4.50
2009,03,28,00,48,4.50
2009,03,28,00,49,4.50
2009,03,28,00,50,4.60
2009,03,28,00,51,4.60
2009,03,28,00,52,4.60
2009,03,28,00,53,4.60
2009,03,28,00,54,4.60
2009,03,28,00,55,4.60
2009,03,28,00,56,4.60
2009,03,28,00,57,4.60
2009,03,28,00,58,4.60
2009,03,28,00,59,4.60
2009,03,28,01,00,4.60
2009,03,28,01,02,4.60
2009,03,28,01,03,4.60
2009,03,28,01,04,4.60
2009,03,28,01,05,4.60
2009,03,28,01,06,4.60
2009,03,28,01,07,4.60
2009,03,28,01,08,4.60
2009,03,28,01,09,4.60
2009,03,28,01,10,4.60
2009,03,28,01,11,4.50
2009,03,28,01,12,4.50
2009,03,28,01,13,4.50
2009,03,28,01,14,4.50
2009,03,28,01,15,4.50
2009,03,28,01,16,4.50
2009,03,28,01,18,4.40
2009,03,28,01,19,4.40
2009,03,28,01,21,4.40
2009,03,28,01,22,4.40
2009,03,28,01,23,4.40
2009,03,28,01,24,4.40
2009,03,28,01,25,4.40
2009,03,28,01,26,4.30
2009,03,28,01,27,4.30
2009,03,28,01,28,4.30
2009,03,28,01,29,4.30
2009,03,28,01,30,4.30
2009,03,28,01,31,4.30
2009,03,28,01,32,4.30
2009,03,28,01,33,4.30
2009,03,28,01,34,4.30
2009,03,28,01,36,4.30
2009,03,28,01,37,4.20
2009,03,28,01,38,4.20
2009,03,28,01,39,4.20
2009,03,28,01,41,4.20
2009,03,28,01,42,4.20
2009,03,28,01,44,4.20
2009,03,28,01,45,4.20
2009,03,28,01,46,4.20
2009,03,28,01,47,4.20
2009,03,28,01,48,4.20
2009,03,28,01,49,4.10
2009,03,28,01,50,4.10
2009,03,28,01,51,4.10
2009,03,28,01,52,4.10
2009,03,28,01,53,4.10
2009,03,28,01,54,4.10
2009,03,28,01,55,4.10
2009,03,28,01,56,4.10
2009,03,28,01,57,4.10
2009,03,28,01,58,4.10
2009,03,28,01,59,4.10
2009,03,28,02,00,4.10
2009,03,28,02,02,4.00
2009,03,28,02,03,4.00
2009,03,28,02,04,4.00
2009,03,28,02,05,4.00
2009,03,28,02,06,4.00
2009,03,28,02,07,4.00
2009,03,28,02,08,4.00
2009,03,28,02,09,4.00
2009,03,28,02,14,4.00
2009,03,28,02,15,4.00
2009,03,28,02,16,4.00
2009,03,28,02,17,4.00
2009,03,28,02,18,3.90
2009,03,28,02,19,3.90
2009,03,28,02,20,3.90
2009,03,28,02,21,3.90
2009,03,28,02,22,3.90
2009,03,28,02,23,3.90
2009,03,28,02,24,3.90
2009,03,28,02,25,3.90
2009,03,28,02,26,3.90
2009,03,28,02,27,3.90
2009,03,28,02,28,3.90
2009,03,28,02,29,3.90
2009,03,28,02,31,3.80
2009,03,28,02,32,3.80
2009,03,28,02,33,3.80
2009,03,28,02,34,3.80
2009,03,28,02,35,3.80
2009,03,28,02,36,3.80
2009,03,28,02,37,3.80
2009,03,28,02,38,3.80
2009,03,28,02,39,3.80
2009,03,28,02,40,3.80
2009,03,28,02,41,3.80
2009,03,28,02,42,3.80
2009,03,28,02,43,3.80
2009,03,28,02,44,3.80
2009,03,28,02,45,3.70
2009,03,28,02,46,3.70
2009,03,28,02,47,3.70
2009,03,28,02,48,3.70
2009,03,28,02,49,3.70
2009,03,28,02,50,3.70
2009,03,28,02,51,3.70
2009,03,28,02,52,3.70
2009,03,28,02,53,3.70
2009,03,28,02,54,3.70
2009,03,28,02,55,3.70
2009,03,28,02,56,3.70
2009,03,28,02,57,3.70
2009,03,28,02,58,3.70
2009,03,28,02,59,3.70
2009,03,28,03,00,3.70
2009,03,28,03,02,3.70
2009,03,28,03,03,3.70
2009,03,28,03,04,3.70
2009,03,28,03,05,3.60
2009,03,28,03,06,3.60
2009,03,28,03,07,3.60
2009,03,28,03,20,3.40
2009,03,28,03,21,3.40
2009,03,28,03,22,3.40
2009,03,28,03,23,3.40
2009,03,28,03,24,3.40
2009,03,28,03,25,3.40
2009,03,28,03,26,3.40
2009,03,28,03,27,3.40
2009,03,28,03,28,3.40
2009,03,28,03,29,3.40
2009,03,28,03,30,3.40
2009,03,28,03,31,3.40
2009,03,28,03,32,3.40
2009,03,28,03,33,3.40
2009,03,28,03,34,3.40
2009,03,28,03,35,3.40
2009,03,28,03,36,3.40
2009,03,28,03,37,3.40
2009,03,28,03,38,3.40
2009,03,28,03,39,3.50
2009,03,28,03,40,3.40
2009,03,28,03,41,3.40
2009,03,28,03,42,3.40
2009,03,28,03,43,3.40
2009,03,28,03,44,3.50
2009,03,28,03,45,3.40
2009,03,28,03,46,3.50
2009,03,28,03,47,3.50
2009,03,28,03,48,3.50
2009,03,28,03,49,3.50
2009,03,28,03,50,3.50
2009,03,28,03,51,3.50
2009,03,28,03,52,3.50
2009,03,28,03,53,3.50
2009,03,28,03,54,3.50
2009,03,28,03,55,3.50
2009,03,28,03,56,3.50
2009,03,28,03,57,3.50
2009,03,28,03,58,3.50
2009,03,28,03,59,3.50
2009,03,28,04,00,3.50
2009,03,28,04,02,3.50
2009,03,28,04,04,3.50
2009,03,28,04,05,3.50
2009,03,28,04,07,3.50
2009,03,28,04,08,3.50
2009,03,28,04,09,3.50
2009,03,28,04,10,3.50
2009,03,28,04,11,3.50
2009,03,28,04,12,3.50
2009,03,28,04,13,3.50
2009,03,28,04,14,3.50
2009,03,28,04,15,3.40
2009,03,28,04,16,3.50
2009,03,28,04,17,3.40
2009,03,28,04,18,3.40
2009,03,28,04,19,3.40
2009,03,28,04,20,3.40
2009,03,28,04,21,3.40
2009,03,28,04,22,3.40
2009,03,28,04,23,3.40
2009,03,28,04,24,3.30
2009,03,28,04,25,3.30
2009,03,28,04,26,3.30
2009,03,28,04,27,3.30
2009,03,28,04,29,3.30
2009,03,28,04,30,3.30
2009,03,28,04,31,3.30
2009,03,28,04,32,3.30
2009,03,28,04,33,3.30
2009,03,28,04,34,3.20
2009,03,28,04,35,3.20
2009,03,28,04,36,3.20
2009,03,28,04,37,3.30
2009,03,28,04,38,3.20
2009,03,28,04,39,3.30
2009,03,28,04,40,3.30
2009,03,28,04,41,3.30
2009,03,28,04,42,3.30
2009,03,28,04,43,3.30
2009,03,28,04,44,3.30
2009,03,28,04,45,3.30
2009,03,28,04,46,3.30
2009,03,28,04,47,3.30
2009,03,28,04,48,3.30
2009,03,28,04,49,3.30
2009,03,28,04,50,3.30
2009,03,28,04,51,3.30
2009,03,28,04,52,3.30
2009,03,28,04,53,3.30
2009,03,28,04,54,3.30
2009,03,28,04,55,3.30
2009,03,28,04,56,3.30
2009,03,28,04,57,3.30
2009,03,28,04,58,3.30
2009,03,28,04,59,3.30
2009,03,28,05,00,3.30
2009,03,28,05,02,3.40
2009,03,28,05,03,3.40
2009,03,28,05,04,3.40
2009,03,28,05,05,3.40
2009,03,28,05,06,3.30
2009,03,28,05,07,3.30
2009,03,28,05,08,3.30
2009,03,28,05,09,3.30
2009,03,28,05,10,3.30
2009,03,28,05,11,3.20
2009,03,28,05,12,3.20
2009,03,28,05,13,3.20
2009,03,28,05,14,3.20
2009,03,28,05,15,3.20
2009,03,28,05,16,3.20
2009,03,28,05,17,3.10
2009,03,28,05,18,3.10
2009,03,28,05,19,3.10
2009,03,28,05,20,3.10
2009,03,28,05,21,3.10
2009,03,28,05,22,3.10
2009,03,28,05,23,3.10
2009,03,28,05,24,3.10
2009,03,28,05,25,3.10
2009,03,28,05,26,3.10
2009,03,28,05,27,3.10
2009,03,28,05,28,3.10
2009,03,28,05,29,3.10
2009,03,28,05,30,3.10
2009,03,28,05,31,3.10
2009,03,28,05,32,3.10
2009,03,28,05,33,3.10
2009,03,28,05,34,3.10
2009,03,28,05,35,3.10
2009,03,28,05,36,3.10
2009,03,28,05,37,3.10
2009,03,28,05,38,3.10
2009,03,28,05,39,3.00
2009,03,28,05,40,3.00
2009,03,28,05,41,3.00
2009,03,28,05,42,3.00
2009,03,28,05,43,3.00
2009,03,28,05,44,3.00
2009,03,28,05,45,2.90
2009,03,28,05,46,2.90
2009,03,28,05,47,2.90
2009,03,28,05,48,2.90
2009,03,28,05,49,2.90
2009,03,28,05,50,2.90
2009,03,28,05,51,2.90
2009,03,28,05,52,2.90
2009,03,28,05,53,2.90
2009,03,28,05,54,2.80
2009,03,28,05,55,2.80
2009,03,28,05,56,2.80
2009,03,28,05,57,2.80
2009,03,28,05,58,2.80
2009,03,28,05,59,2.80
2009,03,28,06,00,2.80
2009,03,28,06,02,2.80
2009,03,28,06,03,2.70
2009,03,28,06,04,2.70
2009,03,28,06,05,2.70
2009,03,28,06,06,2.70
2009,03,28,06,07,2.70
2009,03,28,06,08,2.70
2009,03,28,06,09,2.70
2009,03,28,06,10,2.70
2009,03,28,06,11,2.70
2009,03,28,06,12,2.70
2009,03,28,06,14,2.70
2009,03,28,06,15,2.70
2009,03,28,06,16,2.70
2009,03,28,06,17,2.70
2009,03,28,06,18,2.70
2009,03,28,06,20,2.70
2009,03,28,06,21,2.60
2009,03,28,06,22,2.70
2009,03,28,06,23,2.70
2009,03,28,06,24,2.70
2009,03,28,06,25,2.60
2009,03,28,06,26,2.60
2009,03,28,06,27,2.60
2009,03,28,06,28,2.60
2009,03,28,06,29,2.60
2009,03,28,06,30,2.60
2009,03,28,06,31,2.60
2009,03,28,06,32,2.60
2009,03,28,06,33,2.60
2009,03,28,06,34,2.60
2009,03,28,06,35,2.60
2009,03,28,06,36,2.60
2009,03,28,06,37,2.60
2009,03,28,06,38,2.60
2009,03,28,06,39,2.60
2009,03,28,06,40,2.60
2009,03,28,06,41,2.60
2009,03,28,06,42,2.60
2009,03,28,06,43,2.60
2009,03,28,06,44,2.60
2009,03,28,06,45,2.60
2009,03,28,06,46,2.60
2009,03,28,06,47,2.60
2009,03,28,06,48,2.60
2009,03,28,06,49,2.50
2009,03,28,06,50,2.50
2009,03,28,06,51,2.50
2009,03,28,06,52,2.50
2009,03,28,06,53,2.50
2009,03,28,06,54,2.40
2009,03,28,06,55,2.40
2009,03,28,06,56,2.40
2009,03,28,06,57,2.40
2009,03,28,06,58,2.40
2009,03,28,06,59,2.40
2009,03,28,07,00,2.40
2009,03,28,07,02,2.40
2009,03,28,07,03,2.30
2009,03,28,07,04,2.30
2009,03,28,07,05,2.30
2009,03,28,07,06,2.30
2009,03,28,07,07,2.30
2009,03,28,07,08,2.30
2009,03,28,07,09,2.30
2009,03,28,07,10,2.30
2009,03,28,07,11,2.30
2009,03,28,07,12,2.30
2009,03,28,07,13,2.30
2009,03,28,07,14,2.30
2009,03,28,07,15,2.30
2009,03,28,07,16,2.30
2009,03,28,07,17,2.30
2009,03,28,07,18,2.30
2009,03,28,07,19,2.30
2009,03,28,07,20,2.30
2009,03,28,07,21,2.30
2009,03,28,07,22,2.30
2009,03,28,07,23,2.30
2009,03,28,07,24,2.30
2009,03,28,07,25,2.30
2009,03,28,07,26,2.30
2009,03,28,07,27,2.30
2009,03,28,07,28,2.30
2009,03,28,07,29,2.30
2009,03,28,07,30,2.30
2009,03,28,07,31,2.30
2009,03,28,07,32,2.30
2009,03,28,07,33,2.30
2009,03,28,07,34,2.30
2009,03,28,07,35,2.30
2009,03,28,07,36,2.30
2009,03,28,07,37,2.30
2009,03,28,07,38,2.30
2009,03,28,07,39,2.30
2009,03,28,07,40,2.30
2009,03,28,07,41,2.30
2009,03,28,07,42,2.30
2009,03,28,07,43,2.30
2009,03,28,07,44,2.30
2009,03,28,07,45,2.30
2009,03,28,07,46,2.30
2009,03,28,07,47,2.30
2009,03,28,07,48,2.30
2009,03,28,07,49,2.30
2009,03,28,07,50,2.30
2009,03,28,07,51,2.40
2009,03,28,07,52,2.40
2009,03,28,07,53,2.40
2009,03,28,07,54,2.40
2009,03,28,07,55,2.40
2009,03,28,07,56,2.40
2009,03,28,07,57,2.40
2009,03,28,07,58,2.40
2009,03,28,07,59,2.40
2009,03,28,08,00,2.40
2009,03,28,08,02,2.40
2009,03,28,08,03,2.50
2009,03,28,08,04,2.50
2009,03,28,08,05,2.50
2009,03,28,08,06,2.50
2009,03,28,08,07,2.50
2009,03,28,08,08,2.50
2009,03,28,08,09,2.50
2009,03,28,08,10,2.50
2009,03,28,08,11,2.50
2009,03,28,08,12,2.50
2009,03,28,08,13,2.50
2009,03,28,08,14,2.50
2009,03,28,08,15,2.50
2009,03,28,08,16,2.60
2009,03,28,08,17,2.50
2009,03,28,08,18,2.50
2009,03,28,08,19,2.60
2009,03,28,08,20,2.50
2009,03,28,08,21,2.50
2009,03,28,08,22,2.50
2009,03,28,08,23,2.60
2009,03,28,08,24,2.60
2009,03,28,08,25,2.60
2009,03,28,08,26,2.60
2009,03,28,08,27,2.60
2009,03,28,08,28,2.60
2009,03,28,08,29,2.60
2009,03,28,08,30,2.60
2009,03,28,08,31,2.60
2009,03,28,08,32,2.60
2009,03,28,08,33,2.60
2009,03,28,08,34,2.60
2009,03,28,08,35,2.60
2009,03,28,08,36,2.60
2009,03,28,08,37,2.60
2009,03,28,08,38,2.60
2009,03,28,08,39,2.60
2009,03,28,08,40,2.60
2009,03,28,08,41,2.60
2009,03,28,08,42,2.60
2009,03,28,08,43,2.60
2009,03,28,08,44,2.60
2009,03,28,08,45,2.70
2009,03,28,08,46,2.60
2009,03,28,08,48,2.60
2009,03,28,08,49,2.60
2009,03,28,08,50,2.60
2009,03,28,08,51,2.60
2009,03,28,08,52,2.60
2009,03,28,08,53,2.60
2009,03,28,08,54,2.60
2009,03,28,08,55,2.60
2009,03,28,08,56,2.60
2009,03,28,08,57,2.60
2009,03,28,08,58,2.60
2009,03,28,08,59,2.60
2009,03,28,09,00,2.60
2009,03,28,09,02,2.60
2009,03,28,09,03,2.60
2009,03,28,09,04,2.60
2009,03,28,09,05,2.60
2009,03,28,09,06,2.60
2009,03,28,09,07,2.60
2009,03,28,09,08,2.60
2009,03,28,09,09,2.60
2009,03,28,09,10,2.60
2009,03,28,09,11,2.60
2009,03,28,09,12,2.60
2009,03,28,09,13,2.60
2009,03,28,09,14,2.60
2009,03,28,09,15,2.60
2009,03,28,09,16,2.60
2009,03,28,09,17,2.60
2009,03,28,09,18,2.60
2009,03,28,09,19,2.60
2009,03,28,09,20,2.60
2009,03,28,09,21,2.60
2009,03,28,09,22,2.70
2009,03,28,09,23,2.60
2009,03,28,09,24,2.70
2009,03,28,09,25,2.70
2009,03,28,09,26,2.70
2009,03,28,09,27,2.70
2009,03,28,09,28,2.70
2009,03,28,09,29,2.70
2009,03,28,09,30,2.70
2009,03,28,09,31,2.70
2009,03,28,09,32,2.70
2009,03,28,09,33,2.70
2009,03,28,09,34,2.70
2009,03,28,09,35,2.70
2009,03,28,09,36,2.70
2009,03,28,09,37,2.70
2009,03,28,09,38,2.70
2009,03,28,09,39,2.70
2009,03,28,09,40,2.70
2009,03,28,09,41,2.70
2009,03,28,09,42,2.70
2009,03,28,09,43,2.70
2009,03,28,09,44,2.70
2009,03,28,09,45,2.70
2009,03,28,09,46,2.70
2009,03,28,09,47,2.70
2009,03,28,09,48,2.70
2009,03,28,09,49,2.70
2009,03,28,09,50,2.70
2009,03,28,09,51,2.70
2009,03,28,09,52,2.70
2009,03,28,09,53,2.70
2009,03,28,09,54,2.70
2009,03,28,09,55,2.70
2009,03,28,09,56,2.70
2009,03,28,09,57,2.70
2009,03,28,09,58,2.70
2009,03,28,09,59,2.70
2009,03,28,10,00,2.70
2009,03,28,10,02,2.70
2009,03,28,10,03,2.70
2009,03,28,10,04,2.70
2009,03,28,10,05,2.70
2009,03,28,10,06,2.70
2009,03,28,10,07,2.70
2009,03,28,10,08,2.70
2009,03,28,10,09,2.70
2009,03,28,10,10,2.70
2009,03,28,10,11,2.70
2009,03,28,10,12,2.70
2009,03,28,10,13,2.70
2009,03,28,10,14,2.70
2009,03,28,10,15,2.70
2009,03,28,10,16,2.80
2009,03,28,10,17,2.80
2009,03,28,10,18,2.80
2009,03,28,10,19,2.80
2009,03,28,10,20,2.80
2009,03,28,10,21,2.80
2009,03,28,10,22,2.80
2009,03,28,10,23,2.80
2009,03,28,10,24,2.80
2009,03,28,10,25,2.80
2009,03,28,10,26,2.80
2009,03,28,10,27,2.80
2009,03,28,10,28,2.80
2009,03,28,10,29,2.80
2009,03,28,10,30,2.80
2009,03,28,10,31,2.80
2009,03,28,10,32,2.80
2009,03,28,10,33,2.80
2009,03,28,10,34,2.80
2009,03,28,10,35,2.80
2009,03,28,10,36,2.90
2009,03,28,10,37,2.90
2009,03,28,10,38,2.90
2009,03,28,10,39,2.90
2009,03,28,10,40,2.90
2009,03,28,10,41,2.90
2009,03,28,10,42,2.90
2009,03,28,10,43,2.90
2009,03,28,10,44,2.90
2009,03,28,10,45,2.90
2009,03,28,10,46,2.90
2009,03,28,10,47,2.90
2009,03,28,10,48,2.90
2009,03,28,10,49,2.90
2009,03,28,10,50,3.00
2009,03,28,10,51,3.10
2009,03,28,10,52,3.10
2009,03,28,10,53,3.10
2009,03,28,10,54,3.20
2009,03,28,10,55,3.20
2009,03,28,10,56,3.20
2009,03,28,10,57,3.20
2009,03,28,10,58,3.20
2009,03,28,10,59,3.20
2009,03,28,11,00,3.20
2009,03,28,11,02,3.20
2009,03,28,11,03,3.20
2009,03,28,11,04,3.20
2009,03,28,11,05,3.20
2009,03,28,11,06,3.20
2009,03,28,11,07,3.30
2009,03,28,11,08,3.30
2009,03,28,11,09,3.30
2009,03,28,11,10,3.30
2009,03,28,11,11,3.30
2009,03,28,11,12,3.40
2009,03,28,11,13,3.40
2009,03,28,11,14,3.50
2009,03,28,11,15,3.50
2009,03,28,11,16,3.50
2009,03,28,11,17,3.60
2009,03,28,11,18,3.60
2009,03,28,11,19,3.60
2009,03,28,11,20,3.70
2009,03,28,11,21,3.70
2009,03,28,11,22,3.70
2009,03,28,11,23,3.70
2009,03,28,11,24,3.70
2009,03,28,11,25,3.70
2009,03,28,11,26,3.70
2009,03,28,11,27,3.70
2009,03,28,11,28,3.60
2009,03,28,11,29,3.60
2009,03,28,11,30,3.50
2009,03,28,11,31,3.50
2009,03,28,11,32,3.60
2009,03,28,11,33,3.60
2009,03,28,11,34,3.60
2009,03,28,11,35,3.60
2009,03,28,11,36,3.70
2009,03,28,11,37,3.70
2009,03,28,11,38,3.70
2009,03,28,11,39,3.80
2009,03,28,11,40,3.80
2009,03,28,11,41,3.90
2009,03,28,11,42,3.90
2009,03,28,11,43,4.10
2009,03,28,11,44,4.20
2009,03,28,11,45,4.20
2009,03,28,11,46,4.30
2009,03,28,11,47,4.30
2009,03,28,11,48,4.40
2009,03,28,11,49,4.40
2009,03,28,11,50,4.50
2009,03,28,11,51,4.60
2009,03,28,11,52,4.70
2009,03,28,11,53,4.70
2009,03,28,11,54,4.80
2009,03,28,11,55,4.80
2009,03,28,11,56,4.80
2009,03,28,11,57,4.90
2009,03,28,11,58,4.90
2009,03,28,11,59,5.00
2009,03,28,12,00,5.10
2009,03,28,12,02,5.10
2009,03,28,12,03,5.10
2009,03,28,12,04,5.10
2009,03,28,12,05,5.20
2009,03,28,12,06,5.20
2009,03,28,12,07,5.30
2009,03,28,12,08,5.30
2009,03,28,12,09,5.30
2009,03,28,12,10,5.30
2009,03,28,12,11,5.30
2009,03,28,12,12,5.30
2009,03,28,12,13,5.40
2009,03,28,12,14,5.40
2009,03,28,12,15,5.40
2009,03,28,12,16,5.40
2009,03,28,12,17,5.40
2009,03,28,12,18,5.50
2009,03,28,12,19,5.50
2009,03,28,12,20,5.60
2009,03,28,12,21,5.60
2009,03,28,12,22,5.60
2009,03,28,12,23,5.60
2009,03,28,12,24,5.60
2009,03,28,12,25,5.60
2009,03,28,12,26,5.60
2009,03,28,12,27,5.60
2009,03,28,12,28,5.60
2009,03,28,12,29,5.60
2009,03,28,12,30,5.60
2009,03,28,12,31,5.60
2009,03,28,12,32,5.70
2009,03,28,12,33,5.70
2009,03,28,12,34,5.80
2009,03,28,12,35,5.80
2009,03,28,12,36,5.90
2009,03,28,12,37,5.90
2009,03,28,12,38,5.90
2009,03,28,12,39,6.00
2009,03,28,12,40,6.10
2009,03,28,12,41,6.10
2009,03,28,12,42,6.10
2009,03,28,12,43,6.10
2009,03,28,12,44,6.10
2009,03,28,12,45,6.10
2009,03,28,12,46,6.10
2009,03,28,12,47,6.10
2009,03,28,12,48,6.10
2009,03,28,12,49,6.10
2009,03,28,12,50,6.10
2009,03,28,12,51,6.20
2009,03,28,12,52,6.20
2009,03,28,12,53,6.20
2009,03,28,12,54,6.30
2009,03,28,12,55,6.30
2009,03,28,12,56,6.30
2009,03,28,12,57,6.30
2009,03,28,12,58,6.40
2009,03,28,12,59,6.40
2009,03,28,13,00,6.50
2009,03,28,13,02,6.60
2009,03,28,13,03,6.60
2009,03,28,13,04,6.60
2009,03,28,13,05,6.60
2009,03,28,13,06,6.70
2009,03,28,13,07,6.70
2009,03,28,13,08,6.70
2009,03,28,13,09,6.70
2009,03,28,13,10,6.70
2009,03,28,13,11,6.70
2009,03,28,13,12,6.70
2009,03,28,13,13,6.70
2009,03,28,13,14,6.70
2009,03,28,13,15,6.70
2009,03,28,13,16,6.80
2009,03,28,13,17,6.80
2009,03,28,13,18,6.90
2009,03,28,13,19,6.90
2009,03,28,13,20,7.00
2009,03,28,13,21,7.10
2009,03,28,13,22,7.10
2009,03,28,13,23,7.20
2009,03,28,13,24,7.20
2009,03,28,13,25,7.30
2009,03,28,13,26,7.40
2009,03,28,13,27,7.40
2009,03,28,13,28,7.60
2009,03,28,13,29,7.60
2009,03,28,13,30,7.70
2009,03,28,13,31,7.70
2009,03,28,13,32,7.80
2009,03,28,13,33,7.80
2009,03,28,13,34,7.90
2009,03,28,13,35,8.00
2009,03,28,13,36,8.00
2009,03,28,13,37,8.10
2009,03,28,13,38,8.10
2009,03,28,13,39,8.10
2009,03,28,13,40,8.20
2009,03,28,13,41,8.20
2009,03,28,13,42,8.30
2009,03,28,13,43,8.30
2009,03,28,13,44,8.30
2009,03,28,13,45,8.40
2009,03,28,13,46,8.40
2009,03,28,13,47,8.40
2009,03,28,13,48,8.40
2009,03,28,13,49,8.50
2009,03,28,13,50,8.50
2009,03,28,13,51,8.40
2009,03,28,13,52,8.30
2009,03,28,13,53,8.30
2009,03,28,13,54,8.20
2009,03,28,13,55,8.30
2009,03,28,13,56,8.30
2009,03,28,13,57,8.30
2009,03,28,13,58,8.30
2009,03,28,13,59,8.30
2009,03,28,14,00,8.30
2009,03,28,14,02,8.40
2009,03,28,14,03,8.30
2009,03,28,14,04,8.30
2009,03,28,14,05,8.30
2009,03,28,14,06,8.30
2009,03,28,14,07,8.40
2009,03,28,14,08,8.40
2009,03,28,14,09,8.60
2009,03,28,14,10,8.60
2009,03,28,14,11,8.70
2009,03,28,14,12,8.70
2009,03,28,14,13,8.70
2009,03,28,14,14,8.70
2009,03,28,14,15,8.70
2009,03,28,14,16,8.70
2009,03,28,14,17,8.70
2009,03,28,14,18,8.80
2009,03,28,14,19,8.80
2009,03,28,14,20,8.80
2009,03,28,14,21,8.90
2009,03,28,14,22,9.00
2009,03,28,14,23,9.10
2009,03,28,14,24,9.10
2009,03,28,14,25,9.20
2009,03,28,14,26,9.30
2009,03,28,14,27,9.30
2009,03,28,14,28,9.30
2009,03,28,14,29,9.40
2009,03,28,14,30,9.50
2009,03,28,14,31,9.60
2009,03,28,14,32,9.60
2009,03,28,14,33,9.60
2009,03,28,14,34,9.60
2009,03,28,14,35,9.60
2009,03,28,14,36,9.60
2009,03,28,14,37,9.60
2009,03,28,14,38,9.60
2009,03,28,14,39,9.60
2009,03,28,14,40,9.60
2009,03,28,14,41,9.60
2009,03,28,14,42,9.50
2009,03,28,14,43,9.40
2009,03,28,14,44,9.40
2009,03,28,14,45,9.40
2009,03,28,14,46,9.40
2009,03,28,14,47,9.30
2009,03,28,14,48,9.30
2009,03,28,14,49,9.30
2009,03,28,14,50,9.30
2009,03,28,14,51,9.30
2009,03,28,14,52,9.20
2009,03,28,14,53,9.20
2009,03,28,14,54,9.20
2009,03,28,14,55,9.20
2009,03,28,14,56,9.10
2009,03,28,14,57,9.10
2009,03,28,14,58,9.10
2009,03,28,14,59,9.10
2009,03,28,15,00,9.20
2009,03,28,15,02,9.20
2009,03,28,15,03,9.20
2009,03,28,15,04,9.30
2009,03,28,15,05,9.30
2009,03,28,15,06,9.30
2009,03,28,15,07,9.30
2009,03,28,15,08,9.40
2009,03,28,15,09,9.40
2009,03,28,15,10,9.40
2009,03,28,15,11,9.40
2009,03,28,15,12,9.40
2009,03,28,15,13,9.40
2009,03,28,15,14,9.50
2009,03,28,15,15,9.60
2009,03,28,15,16,9.60
2009,03,28,15,17,9.60
2009,03,28,15,18,9.70
2009,03,28,15,19,9.80
2009,03,28,15,20,9.90
2009,03,28,15,21,9.90
2009,03,28,15,23,10.10
2009,03,28,15,24,10.20
2009,03,28,15,25,10.20
2009,03,28,15,26,10.20
2009,03,28,15,27,10.20
2009,03,28,15,28,10.20
2009,03,28,15,29,10.20
2009,03,28,15,30,10.20
2009,03,28,15,31,10.20
2009,03,28,15,32,10.20
2009,03,28,15,33,10.20
2009,03,28,15,34,10.10
2009,03,28,15,35,10.00
2009,03,28,15,36,9.90
2009,03,28,15,37,9.70
2009,03,28,15,38,9.40
2009,03,28,15,39,9.10
2009,03,28,15,40,8.80
2009,03,28,15,41,8.50
2009,03,28,15,42,8.20
2009,03,28,15,43,7.80
2009,03,28,15,44,7.50
2009,03,28,15,45,7.30
2009,03,28,15,46,7.20
2009,03,28,15,47,6.90
2009,03,28,15,48,6.70
2009,03,28,15,49,6.40
2009,03,28,15,50,6.20
2009,03,28,15,51,6.00
2009,03,28,15,52,5.90
2009,03,28,15,53,5.80
2009,03,28,15,54,5.70
2009,03,28,15,55,5.70
2009,03,28,15,56,5.60
2009,03,28,15,57,5.60
2009,03,28,15,58,5.50
2009,03,28,15,59,5.40
2009,03,28,16,00,5.40
2009,03,28,16,02,5.40
2009,03,28,16,03,5.30
2009,03,28,16,04,5.30
2009,03,28,16,05,5.20
2009,03,28,16,06,5.20
2009,03,28,16,07,5.10
2009,03,28,16,08,5.10
2009,03,28,16,09,5.00
2009,03,28,16,10,4.90
2009,03,28,16,11,4.90
2009,03,28,16,12,4.90
2009,03,28,16,13,4.90
2009,03,28,16,14,4.80
2009,03,28,16,15,4.80
2009,03,28,16,16,4.90
2009,03,28,16,17,4.90
2009,03,28,16,18,4.90
2009,03,28,16,19,4.90
2009,03,28,16,20,4.90
2009,03,28,16,21,4.90
2009,03,28,16,23,4.90
2009,03,28,16,24,4.90
2009,03,28,16,25,4.80
2009,03,28,16,26,4.80
2009,03,28,16,28,4.80
2009,03,28,16,29,4.80
2009,03,28,16,30,4.90
2009,03,28,16,31,4.80
2009,03,28,16,33,4.90
2009,03,28,16,34,4.90
2009,03,28,16,35,4.90
2009,03,28,16,36,5.00
2009,03,28,16,38,5.10
2009,03,28,16,39,5.10
2009,03,28,16,40,5.10
2009,03,28,16,41,5.10
2009,03,28,16,43,5.10
2009,03,28,16,44,5.10
2009,03,28,16,45,5.10
2009,03,28,16,46,5.20
2009,03,28,16,47,5.20
2009,03,28,16,48,5.20
2009,03,28,16,49,5.20
2009,03,28,16,50,5.30
2009,03,28,16,51,5.30
2009,03,28,16,52,5.30
2009,03,28,16,53,5.30
2009,03,28,16,54,5.30
2009,03,28,16,55,5.40
2009,03,28,16,56,5.40
2009,03,28,16,57,5.40
2009,03,28,16,58,5.40
2009,03,28,16,59,5.40
2009,03,28,17,00,5.50
2009,03,28,17,02,5.50
2009,03,28,17,03,5.60
2009,03,28,17,04,5.60
2009,03,28,17,05,5.60
2009,03,28,17,06,5.70
2009,03,28,17,07,5.70
2009,03,28,17,08,5.70
2009,03,28,17,09,5.80
2009,03,28,17,10,5.80
2009,03,28,17,11,5.80
2009,03,28,17,12,5.80
2009,03,28,17,13,5.90
2009,03,28,17,14,5.90
2009,03,28,17,15,5.90
2009,03,28,17,16,6.00
2009,03,28,17,17,6.00
2009,03,28,17,18,6.00
2009,03,28,17,19,6.00
2009,03,28,17,20,6.00
2009,03,28,17,21,6.00
2009,03,28,17,22,6.00
2009,03,28,17,23,5.90
2009,03,28,17,24,5.90
2009,03,28,17,25,5.90
2009,03,28,17,26,5.90
2009,03,28,17,27,5.90
2009,03,28,17,28,5.90
2009,03,28,17,29,5.90
2009,03,28,17,30,5.90
2009,03,28,17,31,5.90
2009,03,28,17,32,5.90
2009,03,28,17,33,5.90
2009,03,28,17,34,5.90
2009,03,28,17,35,6.00
2009,03,28,17,36,6.10
2009,03,28,17,37,6.10
2009,03,28,17,38,6.20
2009,03,28,17,39,6.30
2009,03,28,17,40,6.30
2009,03,28,17,41,6.40
2009,03,28,17,42,6.60
2009,03,28,17,43,6.70
2009,03,28,17,44,6.70
2009,03,28,17,45,6.80
2009,03,28,17,46,6.90
2009,03,28,17,47,7.00
2009,03,28,17,48,7.10
2009,03,28,17,49,7.10
2009,03,28,17,50,7.20
2009,03,28,17,51,7.20
2009,03,28,17,52,7.20
2009,03,28,17,53,7.20
2009,03,28,17,54,7.20
2009,03,28,17,55,7.20
2009,03,28,17,56,7.20
2009,03,28,17,57,7.10
2009,03,28,17,58,7.10
2009,03,28,17,59,7.00
2009,03,28,18,00,7.00
2009,03,28,18,02,6.90
2009,03,28,18,03,6.80
2009,03,28,18,04,6.80
2009,03,28,18,05,6.80
2009,03,28,18,06,6.80
2009,03,28,18,07,6.70
2009,03,28,18,08,6.70
2009,03,28,18,09,6.80
2009,03,28,18,10,6.80
2009,03,28,18,11,6.70
2009,03,28,18,12,6.70
2009,03,28,18,13,6.70
2009,03,28,18,14,6.70
2009,03,28,18,15,6.70
2009,03,28,18,16,6.70
2009,03,28,18,17,6.70
2009,03,28,18,18,6.80
2009,03,28,18,19,6.80
2009,03,28,18,20,6.80
2009,03,28,18,21,6.80
2009,03,28,18,22,6.90
2009,03,28,18,23,6.90
2009,03,28,18,24,6.90
2009,03,28,18,25,7.00
2009,03,28,18,26,7.10
2009,03,28,18,27,7.10
2009,03,28,18,28,7.20
2009,03,28,18,29,7.20
2009,03,28,18,30,7.20
2009,03,28,18,31,7.20
2009,03,28,18,32,7.20
2009,03,28,18,33,7.30
2009,03,28,18,34,7.30
2009,03,28,18,35,7.30
2009,03,28,18,36,7.40
2009,03,28,18,37,7.40
2009,03,28,18,38,7.40
2009,03,28,18,39,7.40
2009,03,28,18,40,7.40
2009,03,28,18,41,7.40
2009,03,28,18,42,7.40
2009,03,28,18,43,7.40
2009,03,28,18,44,7.30
2009,03,28,18,45,7.30
2009,03,28,18,46,7.30
2009,03,28,18,47,7.30
2009,03,28,18,48,7.20
2009,03,28,18,49,7.20
2009,03,28,18,50,7.20
2009,03,28,18,51,7.20
2009,03,28,18,52,7.20
2009,03,28,18,53,7.20
2009,03,28,18,54,7.20
2009,03,28,18,55,7.10
2009,03,28,18,56,7.10
2009,03,28,18,57,7.10
2009,03,28,18,58,7.10
2009,03,28,18,59,7.10
2009,03,28,19,00,7.10
2009,03,28,19,02,7.00
2009,03,28,19,03,7.00
2009,03,28,19,04,6.90